CZ-2D R/B (54030 NORAD) Tracking and Keplerian Element Data

This shows tracking and keplerian element data for the satellite.

Feedback or suggestion? Click here.




ElementValue
Catalog54030
NameCZ-2D R/B
Epoch Orbit376
Epoch Day307.89501336
Epoch Year2022
RAAN312.8324
Inclination98.1954
Eccentricity0.0019139
Argument of Perigee40.3175
Mean Anonmoly319.9437
Mean Motion14.548152
Decay Rate4.3E-06
L11 54030U 22129B 22307.89501336 .00000430 00000+0 11054-3 0 9997
L22 54030 98.1954 312.8324 0019139 40.3175 319.9437 14.54815200 3768



Live tracking and technical data element details for CZ-2D R/B (NORAD 54030). CZ-2D R/B can be tracked NOW for your location showing map with azimuth and elevation plus other details from your city location.







IsCatalogInMostPopularTable: catalog: 54030, numindb: 8
Update: records affected: 1



GetName: 54030 CZ-2D R/B

Hit Count: updated at: Sun, 28 May 2023 07:46:45 GMT